[[{"header":{"parameterUnit":"m.s-1","parameterCategory":1,"la1":30.2991,"la2":30.254,"lo1":-89.0895,"lo2":-89.0444,"dy":0.0017,"dx":0.0017,"nx":28,"ny":28,"refTime":"2024-07-30T09:00:00:Z","depth":0,"parameterNumber":2,"parameterNumberName":"U-component_of_WINDS"},"data":[0,0,0,0,0,0,0,0,0,0,0,0,0,0,0,0,0,0,0,0,0,0,0,0,0,0,0,0,0,0,0,0,0,0,0,0,0,0,0,0,0,0,0,0,0,0,0,0,0,0,0,0,0,0,0,0,0,0,3.2416,3.2417,0,3.2466,3.2467,3.2467,3.2361,3.2357,3.2354,3.2351,3.2405,3.2409,3.2414,0,0,0,0,0,0,0,0,0,0,0,0,0,3.223,3.2234,3.2416,3.2417,3.2418,3.2466,3.2467,3.2467,3.2361,3.2357,3.2353,3.2349,3.2403,3.2409,3.2414,0,0,0,0,0,0,0,0,0,0,0,0,0,3.2299,3.2236,3.2416,3.237,3.2367,3.2466,3.2467,3.2467,3.2362,3.2357,3.2352,3.2347,3.2401,3.2408,3.2415,3.2562,0,0,3.2437,3.244,0,0,0,0,0,0,0,0,3.2295,3.2306,3.2376,3.2374,3.237,3.2402,3.2421,3.2499,3.2363,3.2364,3.235,3.2344,3.2408,3.2414,3.2435,3.2565,3.2567,3.2437,3.2441,3.2444,3.2446,0,0,0,0,0,0,0,3.229,3.2303,3.2436,3.2378,3.2374,3.2348,3.2352,3.2435,3.2415,3.2364,3.2356,3.2363,3.2405,3.2429,3.2436,3.2568,3.2437,3.2443,3.2448,3.245,3.2816,3.2821,0,0,0,0,0,0,3.2291,3.23,3.2434,3.2437,3.2319,3.2355,3.236,3.2397,3.2413,3.2411,3.2368,3.2358,3.2419,3.2428,3.2437,3.2607,3.2444,3.2451,3.2455,3.281,3.2817,3.2823,0,0,0,0,0,0,3.2288,3.2304,3.2432,3.2367,3.2381,3.2364,3.2406,3.2401,3.2423,3.2416,3.2412,3.2395,3.2416,3.2427,3.253,3.2607,3.2454,3.246,3.2804,3.2812,3.282,3.295,0,0,0,0,0,0,3.2283,3.2304,3.2359,3.2369,3.2385,3.2525,3.2411,3.2405,3.2435,3.2423,3.2441,3.2439,3.2412,3.2521,3.2538,3.2614,3.2466,3.2797,3.2808,3.2817,3.2939,3.2962,3.2981,0,0,0,0,0,3.2277,3.2396,3.2363,3.238,3.2454,3.253,3.2539,3.2505,3.2442,3.2497,3.2492,3.2438,3.2597,3.2532,3.255,3.263,3.2792,3.2805,3.2817,3.2929,3.2957,3.2981,0,0,0,0,0,0,3.2398,3.2396,3.236,3.2485,3.2508,3.2512,3.2581,3.2536,3.2579,3.2566,3.2523,3.2528,3.2639,3.2645,3.2573,3.2771,3.2684,3.27,3.2763,3.2789,3.281,3.2806,3.2472,0,0,0,0,0,3.2439,3.25,3.2495,3.2607,3.262,3.2599,3.2631,3.2602,3.2625,3.2634,3.2637,3.2662,3.2716,3.2753,3.2804,3.2939,3.294,3.3003,3.3025,3.3042,3.3056,3.3125,3.3152,3.2864,3.2864,3.2863,0,0,3.2525,3.2531,3.2573,3.2631,3.2645,3.2709,3.2608,3.2681,3.2727,3.2646,3.2742,3.2745,3.277,3.2889,3.2941,3.2897,3.3136,3.3058,3.3072,3.3077,3.3141,3.3168,3.3192,3.2872,3.2871,3.2869,0,0,3.2713,3.2725,3.2817,3.2833,3.2856,3.284,3.2862,3.2872,3.287,3.2966,3.2905,3.296,3.3057,3.3075,3.3098,3.3291,3.3241,3.3309,3.3419,3.3487,3.3509,3.3529,3.3595,3.362,3.3323,3.3324,3.3324,0,3.2817,3.291,3.2871,3.2946,3.2973,3.29,3.2992,3.301,3.3049,3.3068,3.3018,3.3135,3.3147,3.3267,3.3314,3.3336,3.3358,3.3306,3.3509,3.3529,3.3547,3.3609,3.3634,3.3331,3.333,3.333,3.3329,0,3.3036,3.3101,3.3173,3.3209,3.3244,3.3328,3.3301,3.3341,3.3309,3.3298,3.3396,3.3407,3.3456,3.3483,3.3454,3.3599,3.3571,3.3516,3.3427,3.3583,3.364,3.3664,3.3342,3.334,3.3337,3.3335,0,0,3.3302,3.3313,3.334,3.3354,3.3373,3.3423,3.3503,3.3549,3.3583,3.3612,3.3677,3.3759,3.3707,3.3732,3.3704,3.3764,3.3912,3.3701,3.3701,3.3737,3.4069,3.4108,3.4137,3.388,3.3884,3.3888,3.4066,0,3.3486,3.3622,3.3587,3.3722,3.3781,3.3711,3.3781,3.3799,3.3792,3.384,3.3832,3.3889,3.3818,3.3832,3.3888,3.3882,3.3977,3.3869,3.3938,3.3941,3.3932,3.4168,3.421,3.4378,3.4089,3.4093,3.4095,0,3.3719,3.3754,3.3894,3.39,3.3923,3.3986,3.4024,3.4072,3.4091,3.4081,3.4108,3.4068,3.4145,3.4056,3.4162,3.4089,3.4116,3.4117,3.4122,3.4126,3.4026,3.4175,3.4431,3.4455,3.4131,3.4128,3.4126,0,3.3896,3.3979,3.4072,3.4087,3.4096,3.4141,3.4148,3.4161,3.4191,3.4225,3.4243,3.4287,3.431,3.4345,3.4316,3.4255,3.4426,3.4335,3.4418,3.4419,3.4456,3.4454,3.4718,3.4478,3.4478,3.4477,3.4477,0,3.4104,3.4192,3.4151,3.4208,3.4304,3.4263,3.4359,3.4357,3.437,3.4425,3.4369,3.4422,3.4383,3.4433,3.4411,3.45,3.4513,3.4506,3.4498,3.4509,3.451,3.4525,3.4511,3.4484,3.4482,3.4481,3.448,0,3.4317,3.4293,3.439,3.439,3.4392,3.4462,3.4462,3.4515,3.4502,3.4573,3.4587,3.4568,3.4623,3.4598,3.4658,3.4643,3.4757,3.4736,3.475,3.4743,3.4827,3.4818,3.5107,3.5142,3.4882,3.4885,3.4887,0,3.445,3.4515,3.4521,3.4553,3.4563,3.4616,3.4645,3.4607,3.4639,3.4664,3.4714,3.4764,3.4801,3.4893,3.4884,3.4928,3.4906,3.5004,3.4912,3.492,3.4904,3.49,3.4905,3.5022,3.5025,3.5028,3.503,0,3.4687,3.4671,3.4714,3.4753,3.4788,3.4817,3.4841,3.4871,3.4834,3.4873,3.4928,3.4957,3.5015,3.5065,3.5103,3.5109,3.5063,3.5059,3.508,3.509,3.5095,3.509,3.4797,3.5052,3.505,3.5048,3.5047,3.5046,3.4862,3.4916,3.4927,3.4976,3.499,3.5013,3.5061,3.5054,3.5098,3.5142,3.5117,3.518,3.5195,3.5241,3.5254,3.5302,3.5264,3.5295,3.5303,3.531,3.532,3.5089,3.531,3.5309,3.5308,3.5308,3.5307,0,3.5094,3.5097,3.5143,3.5177,3.5215,3.5167,3.5191,3.5226,3.5282,3.5299,3.5336,3.5398,3.5445,3.544,3.5483,3.5523,3.5502,3.5535,3.553,3.5532,3.5354,3.533,3.555,3.555,3.555,3.555,3.555,3.555,3.5219,3.5306,3.5291,3.5384,3.5387,3.5447,3.5464,3.5484,3.5497,3.5568,3.5606,3.5602,3.5609,3.5652,3.5693,3.569,3.5707,3.5747,3.5736,3.5569,3.5545,3.5522,3.5499,3.5752,3.5752,3.591,3.5911,3.5913]},{"header":{"parameterUnit":"m.s-1","parameterCategory":1,"la1":30.2991,"la2":30.254,"lo1":-89.0895,"lo2":-89.0444,"dy":0.0017,"dx":0.0017,"nx":28,"ny":28,"refTime":"2024-07-30T09:00:00:Z","depth":0,"parameterNumber":3,"parameterNumberName":"V-component_of_WINDS"},"data":[0,0,0,0,0,0,0,0,0,0,0,0,0,0,0,0,0,0,0,0,0,0,0,0,0,0,0,0,0,0,0,0,0,0,0,0,0,0,0,0,0,0,0,0,0,0,0,0,0,0,0,0,0,0,0,0,0,0,2.5249,2.525,0,2.5321,2.5322,2.5323,2.5276,2.5274,2.5272,2.527,2.5342,2.5345,2.5349,0,0,0,0,0,0,0,0,0,0,0,0,0,2.5068,2.5071,2.5249,2.525,2.5251,2.5321,2.5322,2.5323,2.5276,2.5274,2.5271,2.5269,2.534,2.5345,2.535,0,0,0,0,0,0,0,0,0,0,0,0,0,2.5144,2.5073,2.5249,2.5236,2.5236,2.5321,2.5322,2.5323,2.5277,2.5274,2.5271,2.5268,2.5339,2.5344,2.535,2.5451,0,0,2.5368,2.5371,0,0,0,0,0,0,0,0,2.514,2.5151,2.5237,2.5237,2.5237,2.5286,2.5284,2.5366,2.5278,2.5261,2.527,2.5266,2.5326,2.5332,2.5353,2.5455,2.5458,2.5369,2.5372,2.5375,2.5377,0,0,0,0,0,0,0,2.5134,2.5147,2.5277,2.5238,2.5238,2.5226,2.5233,2.53,2.5311,2.5262,2.5259,2.5269,2.5325,2.5347,2.5354,2.5459,2.5369,2.5374,2.5377,2.538,2.5644,2.5647,0,0,0,0,0,0,2.5131,2.5143,2.5275,2.528,2.5179,2.5232,2.524,2.5274,2.531,2.5312,2.5271,2.5266,2.5339,2.5347,2.5357,2.5476,2.5375,2.538,2.5384,2.5641,2.5645,2.5649,0,0,0,0,0,0,2.5127,2.5143,2.5272,2.521,2.5226,2.5238,2.5277,2.5277,2.5299,2.5316,2.5318,2.5292,2.5337,2.5348,2.5428,2.5478,2.5383,2.5388,2.5636,2.5642,2.5647,2.5716,0,0,0,0,0,0,2.5122,2.5142,2.5181,2.5212,2.5229,2.5343,2.528,2.5281,2.531,2.5304,2.5337,2.5339,2.5335,2.5419,2.5433,2.5484,2.5393,2.5632,2.5639,2.5645,2.5709,2.5723,2.5735,0,0,0,0,0,2.5116,2.5198,2.5183,2.52,2.5279,2.5346,2.5356,2.5351,2.5314,2.5353,2.5364,2.5338,2.547,2.5428,2.5443,2.5497,2.5629,2.5637,2.5645,2.5704,2.572,2.5734,0,0,0,0,0,0,2.5173,2.5202,2.5186,2.5281,2.5312,2.5338,2.5388,2.5369,2.541,2.5403,2.5393,2.5401,2.5484,2.5498,2.545,2.5595,2.5543,2.5555,2.5583,2.5599,2.5611,2.5606,2.5398,0,0,0,0,0,2.5197,2.525,2.5271,2.5353,2.5369,2.5376,2.5405,2.5398,2.5429,2.5441,2.5458,2.5488,2.5536,2.5568,2.5614,2.5711,2.5716,2.5755,2.5767,2.5778,2.5788,2.5838,2.5855,2.5674,2.5674,2.5674,0,0,2.5246,2.5268,2.5302,2.5365,2.5388,2.5442,2.5387,2.5447,2.5486,2.545,2.5526,2.5539,2.5572,2.566,2.57,2.5675,2.5839,2.5788,2.5796,2.58,2.5848,2.5865,2.588,2.568,2.5679,2.5678,0,0,2.5364,2.5386,2.5456,2.548,2.5515,2.5519,2.5535,2.5565,2.5572,2.5648,2.5621,2.5667,2.5751,2.5775,2.5798,2.5923,2.59,2.5938,2.6004,2.6053,2.6068,2.608,2.6123,2.6139,2.5947,2.5948,2.5948,0,2.5421,2.5502,2.5494,2.5555,2.5583,2.5553,2.5622,2.5645,2.5694,2.5713,2.5684,2.5786,2.5807,2.5899,2.5929,2.595,2.5967,2.5934,2.6066,2.6079,2.609,2.6131,2.6148,2.5952,2.5951,2.5951,2.5951,0,2.5569,2.5625,2.5677,2.5724,2.5758,2.5823,2.5824,2.5858,2.5848,2.5854,2.593,2.5953,2.6002,2.6023,2.6014,2.6114,2.6097,2.6068,2.6015,2.6112,2.615,2.6166,2.5958,2.5956,2.5955,2.5954,0,0,2.5726,2.5767,2.5786,2.5806,2.5842,2.5885,2.5948,2.5995,2.6024,2.6058,2.611,2.618,2.6152,2.6178,2.6171,2.6214,2.631,2.6179,2.618,2.6202,2.642,2.6442,2.646,2.6295,2.6298,2.63,2.6417,0,2.5845,2.5956,2.595,2.6053,2.6104,2.6075,2.6129,2.6156,2.6163,2.6206,2.6213,2.6263,2.6223,2.6239,2.628,2.6289,2.6353,2.6281,2.6341,2.6344,2.6334,2.6481,2.6504,2.6614,2.6432,2.6434,2.6436,0,2.5999,2.6038,2.6146,2.6172,2.6193,2.6243,2.6285,2.6327,2.6356,2.6358,2.6387,2.6371,2.6433,2.6379,2.6464,2.6414,2.6438,2.6446,2.645,2.6456,2.6396,2.6489,2.6648,2.6665,2.646,2.6458,2.6456,0,2.6101,2.618,2.6255,2.6273,2.6306,2.6341,2.6356,2.6382,2.6411,2.6447,2.6465,2.6508,2.6532,2.6565,2.6561,2.6523,2.6646,2.6593,2.6648,2.6648,2.6676,2.6674,2.6841,2.6692,2.6692,2.6692,2.6691,0,2.6234,2.6302,2.6301,2.6347,2.6421,2.6412,2.6485,2.6496,2.6519,2.6566,2.6543,2.6587,2.6579,2.6622,2.662,2.6689,2.67,2.6702,2.67,2.6704,2.6704,2.672,2.6712,2.6696,2.6695,2.6694,2.6693,0,2.6361,2.6364,2.6443,2.6467,2.6475,2.6528,2.6548,2.6591,2.6595,2.6654,2.6667,2.6674,2.6724,2.6723,2.678,2.6777,2.6862,2.6852,2.6853,2.685,2.6906,2.69,2.7088,2.7112,2.6949,2.695,2.6951,0,2.6446,2.6497,2.6526,2.6556,2.6573,2.6622,2.665,2.6643,2.6674,2.671,2.6748,2.6795,2.6833,2.6914,2.6923,2.6965,2.6956,2.7018,2.6962,2.6963,2.6956,2.6952,2.6957,2.703,2.7031,2.7033,2.7034,0,2.6596,2.6594,2.6637,2.668,2.6715,2.6748,2.6778,2.6804,2.68,2.6835,2.6886,2.6915,2.6972,2.7019,2.706,2.7074,2.7053,2.7052,2.7067,2.7071,2.7069,2.707,2.6882,2.7048,2.7046,2.7045,2.7044,2.7044,2.6703,2.6747,2.6774,2.6822,2.6844,2.6873,2.6913,2.6922,2.6965,2.7011,2.7004,2.706,2.7086,2.7139,2.7156,2.7199,2.7177,2.7199,2.7204,2.721,2.7216,2.7062,2.7207,2.7206,2.7206,2.7206,2.7205,0,2.6851,2.6867,2.6911,2.6954,2.6991,2.6969,2.7001,2.7033,2.7083,2.7109,2.7147,2.7204,2.7249,2.7261,2.7304,2.7336,2.7327,2.7347,2.7345,2.7348,2.7234,2.7216,2.7353,2.7353,2.7353,2.7353,2.7353,2.7353,2.6932,2.7004,2.7005,2.7086,2.7101,2.7157,2.7177,2.7202,2.7223,2.7288,2.7326,2.7333,2.7354,2.7397,2.7437,2.7439,2.7456,2.748,2.7478,2.7371,2.7356,2.7342,2.7325,2.7484,2.7484,2.7589,2.759,2.7591]}]]